Location: Wells
(51.2093°N, 2.6446°W)
Time: 06:45:13
(UTC+01:00)

PCSat - Pass Details

Date: 09 March 2026
Orbit: 780 x 790 km, 67.1° (Epoch: 13 April)

Event Time Altitude Azimuth Distance (km) Brightness Sun altitude
Exits shadow 03:41:52 15° 327° (NNW) 2,041 11.6 -27.5°
Maximum altitude 03:43:24 16° 347° (NNW) 1,949 11.7 -27.3°
Drops below altitude 10° 03:46:47 10° 26° (NNE) 2,365 12.7 -26.8°
Sets 03:50:10 0° 47° (NE) 3,296 14.0 -26.3°
